Morrisville, VT

4:06 AM EST on November 14, 2019 (GMT -0500)
Morrisville Stowe State

Weather History for KMVL - September, 2019

Change the Weather History Date:

Tuesday, September 10, 2019

  Actual Average Record
Temperature  
Mean Temperature 56 °F 60 °F  
Max Temperature 71 °F 72 °F 91 °F (2002)
Min Temperature 41 °F 48 °F 37 °F (2006)
Degree Days  
Heating Degree Days 9 6  
Month to date heating degree days 61 48  
Since 1 July heating degree days 126 143  
Cooling Degree Days 0 1  
Month to date cooling degree days 1 10  
Year to date cooling degree days 244 257  
Growing Degree Days 6 (Base 50)    
Moisture  
Dew Point 49 °F    
Average Humidity 85    
Maximum Humidity 100    
Minimum Humidity 55    
Precipitation  
Precipitation 0.04 in 0.10 in 0.59 in (1999)
Month to date precipitation 1.93 0.97  
Year to date precipitation 29.16 24.73  
Sea Level Pressure  
Sea Level Pressure 30.32 in    
Wind  
Wind Speed 3 mph ()    
Max Wind Speed 14 mph    
Max Gust Speed 19 mph    
Visibility 5.8 miles    
Events Fog , Rain    
T = Trace of Precipitation, MM = Missing Value Source: Averaged Metar Reports

Daily Weather History Graph

Daily Weather History Graph

Search for Another Location

Airport or City:

Astronomy

Sep. 10, 2019 Rise Set
Actual Time 6:23 AM EDT 7:10 PM EDT
Civil Twilight 5:53 AM EDT 7:40 PM EDT
Nautical Twilight 5:18 AM EDT 8:15 PM EDT
Astronomical Twilight 4:41 AM EDT 8:51 PM EDT
Moon 5:54 PM EDT (9/10) 2:36 AM EDT (9/10)
Length of Visible Light 13h 46m
Length of Day
12h 47m
Waxing Gibbous, 89% of the Moon is Illuminated
Sep 10
Waxing Gibbous
Sep 14
Full
Sep 21
Last Quarter
Sep 28
New
Oct 5
First Quarter

Hourly Weather History & Observations

Time (EDT) Temp. Windchill Dew Point Humidity Pressure Visibility Wind Dir Wind Speed Gust Speed Precip Events Conditions
12:35 AM 41.0 °F 38.0 °F 39.9 °F 96% 30.37 in 1.5 mi South 4.6 mph - N/A   Scattered Clouds
12:38 AM 41.0 °F 38.0 °F 39.9 °F 96% 30.37 in 1.0 mi South 4.6 mph - N/A   Mist
12:45 AM 41.0 °F 38.0 °F 39.9 °F 96% 30.36 in 0.8 mi SSE 4.6 mph - N/A   Mist
12:54 AM 42.1 °F - 42.1 °F 100% 30.38 in 0.5 mi Calm Calm - N/A Fog Fog
1:16 AM 42.1 °F - 41.0 °F 96% 30.36 in 1.2 mi Calm Calm - N/A   Overcast
1:27 AM 43.0 °F - 41.0 °F 93% 30.37 in 0.8 mi Calm Calm - N/A   Mist
1:54 AM 43.0 °F - 42.1 °F 97% 30.38 in 0.5 mi Calm Calm - N/A Fog Fog
2:54 AM 43.0 °F - 42.1 °F 97% 30.39 in 0.2 mi Calm Calm - N/A Fog Fog
3:54 AM 42.1 °F - 41.0 °F 96% 30.40 in 0.2 mi Calm Calm - N/A Fog Fog
4:54 AM 41.0 °F - 41.0 °F 100% 30.40 in 0.5 mi Calm Calm - N/A Fog Fog
5:54 AM 42.1 °F - 41.0 °F 96% 30.41 in 0.5 mi Calm Calm - N/A Fog Fog
6:54 AM 42.1 °F - 41.0 °F 96% 30.43 in 0.2 mi Calm Calm - N/A Fog Fog
7:43 AM 42.1 °F - 42.1 °F 100% 30.41 in 1.2 mi Calm Calm - N/A   Overcast
7:50 AM 42.8 °F - 42.8 °F 100% 30.40 in 3.0 mi Calm Calm - N/A   Overcast
7:54 AM 43.0 °F 41.3 °F 42.1 °F 97% 30.42 in 4.0 mi SSE 3.5 mph - N/A   Overcast
8:54 AM 46.9 °F - 46.0 °F 97% 30.42 in 10.0 mi SSE 5.8 mph - N/A   Overcast
9:19 AM 48.9 °F - 46.9 °F 93% 30.39 in 10.0 mi South 4.6 mph - N/A   Scattered Clouds
9:54 AM 54.0 °F - 48.9 °F 83% 30.40 in 10.0 mi South 5.8 mph - N/A   Clear
10:54 AM 61.0 °F - 48.9 °F 64% 30.38 in 10.0 mi South 4.6 mph - N/A   Clear
11:54 AM 64.0 °F - 50.0 °F 60% 30.34 in 10.0 mi Variable 3.5 mph - N/A   Clear
12:54 PM 68.0 °F - 52.0 °F 56% 30.31 in 10.0 mi Variable 3.5 mph - N/A   Clear
1:54 PM 70.0 °F - 54.0 °F 57% 30.28 in 10.0 mi SW 5.8 mph - N/A   Scattered Clouds
2:54 PM 71.1 °F - 55.0 °F 57% 30.26 in 10.0 mi SSW 8.1 mph - N/A   Scattered Clouds
3:54 PM 70.0 °F - 57.0 °F 63% 30.24 in 10.0 mi South 5.8 mph - N/A   Mostly Cloudy
4:54 PM 69.1 °F - 57.0 °F 65% 30.23 in 10.0 mi SSW 4.6 mph - N/A   Overcast
5:54 PM 69.1 °F - 57.9 °F 68% 30.20 in 10.0 mi SSW 8.1 mph - N/A   Overcast
6:54 PM 66.9 °F - 57.9 °F 73% 30.20 in 10.0 mi Calm Calm - N/A   Overcast
7:54 PM 64.0 °F - 59.0 °F 84% 30.18 in 10.0 mi South 3.5 mph - N/A   Overcast
8:54 PM 66.9 °F - 60.1 °F 79% 30.14 in 10.0 mi SSW 5.8 mph - N/A   Overcast
9:54 PM 66.9 °F - 61.0 °F 81% 30.13 in 10.0 mi SSW 10.4 mph - 0.00 in Rain Light Rain
10:54 PM 64.9 °F - 63.0 °F 93% 30.12 in 10.0 mi Variable 4.6 mph - 0.01 in   Overcast
11:54 PM 66.0 °F - 63.0 °F 90% 30.11 in 9.0 mi SW 8.1 mph - 0.03 in Rain Light Rain